User: anonymous   Login
Location: Unspecified
(0.0000°N, 0.0000°E)
Time: 00:29:06
(UTC+00:00)
Language:

TDRS 1 - Orbit

View from above orbital plane
View from above orbital plane
View from above satellite
View from above satellite

Ground track
Ground track

The orbit data is extracted from the following two-line orbital elements,

1 13969U 83026B   18203.47493016 -.00000078 +00000-0 +00000-0 0  9991
2 13969 013.1584 340.9503 0019282 193.1637 142.5320 00.98744349101858
Epoch (UTC): 22 July 2018 11:23:53
Eccentricity: 0.0019282
inclination: 13.1584°
perigee height: 36138 km
apogee height: 36302 km
right ascension of ascending node: 340.9503°
argument of perigee: 193.1637°
revolutions per day: 0.98744349
mean anomaly at epoch: 142.5320°
orbit number at epoch: 10185

The dashed part of the orbit path shows where the satellite is in the earth's shadow,  

DLR